This demonstration page uses our WeatherBlox Daily Observations layout. Learn more.

Left ArrowRight Arrow

Hourly Observations for March 13, 2015

Temp ( °F °C ) Dew Point ( °F °C ) Humidity (%) Winds ( mph kmh ) Pressure ( in mb ) Visibility ( mi km ) Precip ( " mm )
12:51 am 00:51 Clear 60 15.6 35 1.7 39 39 E 12 19 29.93 1014 10 16 0.00 0.00
1:51 am 01:51 Clear 59 15 35 1.7 41 41 NE 8 13 29.93 1014 10 16 0.00 0.00
2:51 am 02:51 Clear 55 12.8 35 1.7 47 47 Calm 29.93 1014 10 16 0.00 0.00
3:51 am 03:51 Clear 51 10.6 35 1.7 54 54 N 6 9 29.94 1014 10 16 0.00 0.00
4:51 am 04:51 Clear 49 9.4 34 1.1 56 56 ENE 6 9 29.95 1014 10 16 0.00 0.00
5:51 am 05:51 Clear 48 8.9 34 1.1 58 58 Calm 29.96 1015 10 16 0.00 0.00
6:51 am 06:51 Sunny 47 8.3 35 1.7 63 63 NW 3 6 30.00 1016 10 16 0.00 0.00
7:51 am 07:51 Sunny 54 12.2 37 2.8 53 53 Calm 30.02 1017 10 16 0.00 0.00
8:51 am 08:51 Sunny 58 14.4 37 2.8 46 46 S 3 6 30.04 1017 10 16 0.00 0.00
9:51 am 09:51 Sunny 62 16.7 36 2.2 38 38 Calm 30.02 1017 10 16 0.00 0.00
10:51 am 10:51 Sunny 69 20.6 35 1.7 29 29 Calm 29.99 1016 10 16 0.00 0.00
11:51 am 11:51 Sunny 72 22.2 32 0 23 23 undefined N/A 29.96 1015 10 16 0.00 0.00
12:51 pm 12:51 Sunny 75 23.9 32 0 21 21 SSW 6 9 29.94 1014 10 16 0.00 0.00
1:51 pm 13:51 Mostly Cloudy 75 23.9 29 -1.7 18 18 NNE 6 9 29.91 1013 10 16 0.00 0.00
2:51 pm 14:51 Cloudy with Light Rain 71 21.7 33 0.6 25 25 ENE 23 37 29.95 1014 10 16 0.00 0.03
3:04 pm 15:04 Cloudy with Rain 65 18.3 39 3.9 39 39 VRB 7 11 29.94 1014 5 8 0.02 0.51
3:51 pm 15:51 Mostly Sunny 69 20.6 37 2.8 31 31 N 12 19 29.96 1015 10 16 0.02 0.51
4:51 pm 16:51 Sunny 69 20.6 40 4.4 35 35 NNW 3 6 29.96 1015 10 16 0.00 0.00
5:51 pm 17:51 Sunny 63 17.2 45 7.2 52 52 WNW 7 11 29.98 1015 10 16 0.00 0.00
6:51 pm 18:51 Mostly Cloudy 61 16.1 42 5.6 50 50 N 8 13 30.01 1016 10 16 0.00 0.00
7:51 pm 19:51 Mostly Clear 61 16.1 40 4.4 46 46 WSW 6 9 30.03 1017 10 16 0.00 0.00
8:51 pm 20:51 Clear 58 14.4 42 5.6 56 56 N 10 17 30.04 1017 10 16 0.00 0.00
9:51 pm 21:51 Clear 54 12.2 39 3.9 57 57 NNE 6 9 30.06 1018 10 16 0.00 0.00
10:51 pm 22:51 Clear 52 11.1 40 4.4 64 64 E 3 6 30.06 1018 10 16 0.00 0.00
11:51 pm 23:51 Mostly Cloudy 52 11.1 38 3.3 59 59 ESE 5 7 30.07 1018 10 16 0.00 0.00

Powered by AerisWeather